sat.trackr.live / text

‹ back to catalog

EUTELSAT 117 WEST A

NORAD 39122 · 2013-012A

PAYLOAD ACTIVE UNKNOWN

§ Identity

Operator
Country
EUTE
Launch date
2013-03-26
Launch site
TYMSC
Launch vehicle
Mass (kg)
RCS (m²)
423.23

Purposes: comms

External: N2YO · Heavens-Above · Gunter

§ Orbital elements

Epoch: 2026-05-25T03:42:38.615040Z

Period
1,436.09 min
Inclination
0.0151°
Eccentricity
0.0002669
Mean motion
1.00271918 rev/d
Perigee alt
35,775.3 km
Apogee alt
35,797.8 km
Semi-major
42,164.7 km
B*
0.0000e+0
RAAN
351.0802°
Arg perigee
69.9235°
Mean anomaly
120.5919°
Rev number
4,820

§ Raw data

EUTELSAT 117 WEST A1 39122U 13012A   26145.15461360 -.00000015  00000+0  00000+0 0  99932 39122   0.0151 351.0802 0002669  69.9235 120.5919  1.00271918 48202

JSON: /api/v1/satellites/39122 · /tle

For live sub-satellite position, see the globe view (requires WebGL).

§ Visibility from observer

Set your observer location to see the next 7 days of passes ≥ 10°. The values pass through the URL so the page stays shareable.

No JS? Fill the form by hand. The geolocation button needs JavaScript.